Corona, CA

2:52 PM PDT on April 24, 2017 (GMT -0700)
Corona Municipal

Weather History for KAJO - November, 2012

Change the Weather History Date:

Saturday, November 17, 2012

  Actual Average (KCNO) Record (KCNO)
Temperature  
Mean Temperature 60 °F -  
Max Temperature 68 °F 70 °F 91 °F (2008)
Min Temperature 52 °F 41 °F 36 °F (2015)
Degree Days  
Heating Degree Days 5    
Growing Degree Days 10 (Base 50)    
Moisture  
Dew Point 57 °F    
Average Humidity 91    
Maximum Humidity 100    
Minimum Humidity 63    
Precipitation  
Precipitation 0.01 in - - ()
Sea Level Pressure  
Sea Level Pressure 30.08 in    
Wind  
Wind Speed 2 mph (NW)    
Max Wind Speed 9 mph    
Max Gust Speed -    
Visibility 6 miles    
Events Rain    
Averages and records for this station are not official NWS values.
T = Trace of Precipitation, MM = Missing Value Source: NWS Daily Summary

Daily Weather History Graph

Daily Weather History Graph

Search for Another Location

Airport or City:

Trip Planner

Search our weather history database for the weather conditions in past years. The results will help you decide how hot, cold, wet, or windy it might be!

Date:

Astronomy

Nov. 17, 2012 Rise Set
Actual Time 6:25 AM PST 4:45 PM PST
Civil Twilight 5:58 AM PST 5:12 PM PST
Nautical Twilight 5:28 AM PST 5:42 PM PST
Astronomical Twilight 4:58 AM PST 6:12 PM PST
Moon 10:13 AM PST (11/17) 8:59 PM PST (11/17)
Length of Visible Light 11h 13m
Length of Day
10h 20m
Waxing Crescent, 21% of the Moon is Illuminated
Nov 17
Waxing Crescent
Nov 20
First Quarter
Nov 28
Full
Dec 6
Last Quarter
Dec 13
New

Hourly Weather History & Observations

Time (PST) Temp. Dew Point Humidity Pressure Visibility Wind Dir Wind Speed Gust Speed Precip Events Conditions
12:56 AM 57.9 °F 57.9 °F 100% 30.07 in 10.0 mi Calm Calm - N/A   Overcast
1:56 AM 57.9 °F 57.9 °F 100% 30.06 in 8.0 mi West 3.5 mph - N/A   Overcast
2:27 AM 57.2 °F 57.2 °F 100% 30.07 in 4.0 mi WNW 3.5 mph - 0.00 in Rain Light Rain
2:56 AM 57.9 °F 57.9 °F 100% 30.06 in 1.2 mi Calm Calm - 0.00 in Rain Rain
3:05 AM 57.2 °F 57.2 °F 100% 30.07 in 2.0 mi Calm Calm - 0.00 in Rain Light Rain
3:16 AM 57.2 °F 57.2 °F 100% 30.06 in 4.0 mi East 3.5 mph - 0.00 in Rain Light Rain
3:23 AM 57.2 °F 57.2 °F 100% 30.06 in 4.0 mi ENE 4.6 mph - 0.00 in Rain Light Rain
3:56 AM 57.9 °F 57.9 °F 100% 30.05 in 5.0 mi Calm Calm - 0.00 in   Mostly Cloudy
4:10 AM 57.2 °F 57.2 °F 100% 30.07 in 4.0 mi Calm Calm - N/A   Overcast
4:26 AM 57.2 °F 57.2 °F 100% 30.06 in 4.0 mi Calm Calm - N/A   Mostly Cloudy
4:56 AM 56.8 °F 56.8 °F 100% 30.05 in 3.0 mi Calm Calm - N/A   Overcast
5:38 AM 57.2 °F 57.2 °F 100% 30.08 in 4.0 mi Calm Calm - N/A   Mostly Cloudy
5:56 AM 54.9 °F 54.9 °F 100% 30.07 in 3.0 mi Calm Calm - N/A   Mostly Cloudy
6:20 AM 55.4 °F 55.4 °F 100% 30.09 in 2.5 mi Calm Calm - N/A   Mostly Cloudy
6:32 AM 53.6 °F 53.6 °F 100% 30.09 in 1.2 mi Calm Calm - N/A   Mostly Cloudy
6:44 AM 55.4 °F 53.6 °F 94% 30.09 in 2.0 mi NE 4.6 mph - N/A   Scattered Clouds
6:56 AM 52.9 °F 52.9 °F 100% 30.09 in 1.2 mi Calm Calm - N/A   Mostly Cloudy
7:10 AM 55.4 °F 53.6 °F 94% 30.10 in 1.8 mi Calm Calm - N/A   Mostly Cloudy
7:19 AM 55.4 °F - N/A% 30.11 in 2.5 mi Calm Calm - N/A   Mostly Cloudy
7:27 AM 57.2 °F - N/A% 30.11 in 4.0 mi Calm Calm - N/A   Haze
7:43 AM 57.2 °F - N/A% 30.12 in 3.0 mi Calm Calm - N/A   Mostly Cloudy
7:56 AM 56.8 °F - N/A% 30.11 in 2.5 mi Calm Calm - N/A   Mostly Cloudy
8:05 AM 57.2 °F - N/A% 30.12 in 2.5 mi Calm Calm - N/A   Scattered Clouds
8:15 AM 59.0 °F 59.0 °F 100% 30.12 in 3.0 mi Calm Calm - N/A   Scattered Clouds
9:56 AM 63.9 °F 55.9 °F 75% 30.11 in 10.0 mi East 3.5 mph - 0.00 in   Scattered Clouds
10:56 AM 64.9 °F 57.9 °F 78% 30.10 in 10.0 mi Variable 4.6 mph - N/A   Mostly Cloudy
11:56 AM 64.9 °F 55.9 °F 73% 30.07 in 8.0 mi WNW 5.8 mph - 0.00 in Rain Light Rain
12:56 PM 65.8 °F 55.9 °F 70% 30.05 in 10.0 mi WNW 4.6 mph - 0.00 in   Scattered Clouds
1:56 PM 68.9 °F 55.9 °F 63% 30.04 in 10.0 mi West 9.2 mph - 0.01 in   Clear
2:56 PM 66.9 °F 54.9 °F 65% 30.04 in 10.0 mi WNW 6.9 mph - N/A   Scattered Clouds
3:56 PM 66.9 °F 54.9 °F 65% 30.04 in 10.0 mi WNW 9.2 mph - N/A   Mostly Cloudy
4:56 PM 64.9 °F 54.9 °F 70% 30.04 in 10.0 mi West 9.2 mph - N/A   Mostly Cloudy
5:56 PM 63.9 °F 55.9 °F 75% 30.05 in 10.0 mi WNW 8.1 mph - N/A   Overcast
6:56 PM 61.9 °F 57.9 °F 87% 30.06 in 10.0 mi NW 5.8 mph - 0.00 in   Overcast
7:56 PM 61.0 °F 59.0 °F 93% 30.07 in 10.0 mi North 4.6 mph - N/A   Mostly Cloudy
8:56 PM 59.9 °F 59.9 °F 100% 30.09 in 10.0 mi ENE 4.6 mph - N/A   Overcast
9:56 PM 59.9 °F 59.9 °F 100% 30.10 in 10.0 mi West 4.6 mph - 0.00 in Rain Light Rain
9:59 PM 60.8 °F 60.8 °F 100% 30.11 in 8.0 mi WNW 3.5 mph - 0.00 in Rain Light Rain
10:56 PM 59.0 °F 59.0 °F 100% 30.11 in 6.0 mi Calm Calm - 0.00 in   Mostly Cloudy
11:45 PM 57.2 °F - N/A% 30.11 in 8.0 mi Calm Calm - N/A   Overcast
11:56 PM 59.0 °F - N/A% 30.10 in 8.0 mi Calm Calm - N/A   Overcast